This is the latest recevied weather packets stored in our database for station/object N1ORT. If no packets are shown the sender has not sent any weather packets the latest 10 day(s).
| Time | Temp. | Humidity | Pressure | Rain* | Wind** | Luminosity | Snow |
|---|---|---|---|---|---|---|---|
| 1788425524 | 16.67° C | 99% | 1014.9 hPa | 0 mm | - | 0 W/m² | - |
| 1788425221 | 16.67° C | 99% | 1014.7 hPa | 0.51 mm | - | 0 W/m² | - |
| 1788424915 | 16.67° C | 98% | 1014.5 hPa | 5.33 mm | - | 0 W/m² | - |
| 1788424611 | 16.67° C | 98% | 1014.6 hPa | 11.94 mm | - | 0 W/m² | - |
| 1788424306 | 17.22° C | 96% | 1014.5 hPa | 6.6 mm | - | 0 W/m² | - |
| 1788424000 | 17.22° C | 96% | 1014.7 hPa | 0 mm | - | 0 W/m² | - |
| 1788423696 | 17.22° C | 95% | 1014.4 hPa | 0 mm | - | 0 W/m² | - |
| 1788423390 | 17.22° C | 94% | 1014 hPa | 0 mm | - | 0 W/m² | - |
| 1788423086 | 17.22° C | 95% | 1014.3 hPa | 0 mm | - | 0 W/m² | - |
| 1788422782 | 17.22° C | 95% | 1014 hPa | 0 mm | - | 0 W/m² | - |
| 1788422479 | 17.22° C | 95% | 1014.2 hPa | 0 mm | - | 0 W/m² | - |
| 1788422173 | 17.22° C | 94% | 1014.7 hPa | 0 mm | - | 0 W/m² | - |
| 1788421868 | 17.22° C | 95% | 1014.6 hPa | 0 mm | - | 0 W/m² | - |
| 1788421568 | 17.22° C | 95% | 1014.7 hPa | 0 mm | - | 0 W/m² | - |
| 1788421262 | 17.22° C | 95% | 1014.6 hPa | 0 mm | - | 0 W/m² | - |
| 1788420958 | 17.22° C | 95% | 1014.9 hPa | 0 mm | - | 0 W/m² | - |
| 1788420654 | 17.22° C | 95% | 1014.7 hPa | 0 mm | - | 0 W/m² | - |
| 1788420349 | 17.22° C | 97% | 1014.7 hPa | 0 mm | - | 0 W/m² | - |
| 1788420045 | 16.67° C | 97% | 1014.8 hPa | 0 mm | - | 0 W/m² | - |
| 1788419741 | 17.22° C | 98% | 1014.8 hPa | 0 mm | - | 0 W/m² | - |
| 1788419431 | 17.22° C | 98% | 1015.1 hPa | 0 mm | - | 0 W/m² | - |
| 1788419131 | 16.67° C | 98% | 1015.1 hPa | 0 mm | - | 0 W/m² | - |
| 1788418826 | 17.22° C | 99% | 1015.1 hPa | 0 mm | - | 0 W/m² | - |
| 1788418519 | 17.22° C | 99% | 1015.1 hPa | 0 mm | - | 0 W/m² | - |
| 1788418214 | 17.22° C | 99% | 1015.3 hPa | 0 mm | - | 0 W/m² | - |
* Rain latest hour (hover to see other rain measurements)
** Current wind speed in m/s (hover to see current wind gust speed)